Location: Arroyo de Valdeoliva
(40.1604°N, 4.9878°W)
Time: 05:53:52
(UTC+00:00)

Cosmos 1825 Rocket - Pass Details

Date: 24 March 2026
Orbit: 596 x 623 km, 82.5° (Epoch: 15 April)

Event Time Altitude Azimuth Distance (km) Brightness Sun altitude
Rises 04:53:12 0° 353° (N) 2,883 7.1 -16.6°
Reaches altitude 10° 04:55:26 10° 355° (N) 1,970 6.3 -16.2°
Maximum altitude 04:59:48 80° 82° (E) 619 3.6 -15.4°
Drops below altitude 10° 05:04:05 10° 170° (S) 1,938 6.1 -14.6°
Sets 05:06:17 0° 171° (S) 2,833 6.9 -14.2°
